| time (UTC) | temp C | wind direction | speed KPH | gust KPH | rain 1hr cm | rain 24hr cm | rain mn cm | humidity % | barometer mb |
| 20260507124754 | 9 | 29 | 9.7 | 19.3 | 0.00 | 0.00 | 0.00 | 50 | 1016.6 |
| 20260507124251 | 9 | 27 | 12.9 | 16.1 | 0.00 | 0.00 | 0.00 | 53 | 1016.6 |
| 20260507123749 | 8 | 30 | 6.4 | 17.7 | 0.00 | 0.00 | 0.00 | 57 | 1016.7 |
| 20260507123247 | 8 | 341 | 4.8 | 17.7 | 0.00 | 0.00 | 0.00 | 57 | 1016.6 |
| 20260507122742 | 8 | 325 | 6.4 | 11.3 | 0.00 | 0.00 | 0.00 | 59 | 1016.7 |
| 20260507122238 | 8 | 27 | 6.4 | 8.0 | 0.00 | 0.00 | 0.00 | 61 | 1016.5 |
| 20260507121734 | 8 | 3 | 6.4 | 9.7 | 0.00 | 0.00 | 0.00 | 63 | 1016.9 |
| 20260507121230 | 7 | 26 | 6.4 | 9.7 | 0.00 | 0.00 | 0.00 | 64 | 1016.7 |
| 20260507120726 | 7 | 19 | 6.4 | 8.0 | 0.00 | 0.00 | 0.00 | 66 | 1016.9 |
| 20260507120223 | 7 | 301 | 3.2 | 6.4 | 0.00 | 0.00 | 0.00 | 69 | 1016.8 |
| 20260507115719 | 7 | 322 | 0.0 | 3.2 | 0.00 | 0.00 | 0.00 | 69 | 1016.8 |
| 20260507115215 | 7 | 359 | 4.8 | 6.4 | 0.00 | 0.00 | 0.00 | 69 | 1016.7 |
| 20260507114711 | 7 | 356 | 3.2 | 6.4 | 0.00 | 0.00 | 0.00 | 69 | 1016.6 |
| 20260507114209 | 7 | 311 | 3.2 | 3.2 | 0.00 | 0.00 | 0.00 | 70 | 1016.7 |
| 20260507113706 | 6 | 11 | 4.8 | 4.8 | 0.00 | 0.00 | 0.00 | 70 | 1016.7 |
| 20260507113202 | 6 | 14 | 6.4 | 6.4 | 0.00 | 0.00 | 0.00 | 70 | 1016.6 |
| 20260507112700 | 6 | 350 | 3.2 | 4.8 | 0.00 | 0.00 | 0.00 | 72 | 1016.5 |
| 20260507112157 | 6 | 354 | 6.4 | 6.4 | 0.00 | 0.00 | 0.00 | 71 | 1016.6 |
| 20260507111654 | 6 | 12 | 0.0 | 4.8 | 0.00 | 0.00 | 0.00 | 73 | 1016.5 |
| 20260507111151 | 6 | 355 | 4.8 | 6.4 | 0.00 | 0.00 | 0.00 | 74 | 1016.3 |
| 20260507110647 | 6 | 0 | 4.8 | 8.0 | 0.00 | 0.00 | 0.00 | 74 | 1016.4 |
| 20260507110144 | 6 | 14 | 8.0 | 9.7 | 0.00 | 0.00 | 0.00 | 75 | 1016.1 |
| 20260507105641 | 6 | 13 | 8.0 | 8.0 | 0.00 | 0.00 | 0.00 | 77 | 1016.1 |
| 20260507105136 | 6 | 358 | 4.8 | 8.0 | 0.00 | 0.00 | 0.00 | 76 | 1016.1 |
| 20260507104634 | 6 | 356 | 8.0 | 8.0 | 0.00 | 0.00 | 0.00 | 76 | 1016.0 |
| 20260507104131 | 6 | 357 | 4.8 | 8.0 | 0.00 | 0.00 | 0.00 | 77 | 1015.9 |
| 20260507103627 | 6 | 8 | 4.8 | 6.4 | 0.00 | 0.00 | 0.00 | 77 | 1016.0 |
| 20260507103124 | 6 | 356 | 6.4 | 8.0 | 0.00 | 0.00 | 0.00 | 77 | 1015.9 |
| 20260507102620 | 6 | 359 | 6.4 | 6.4 | 0.00 | 0.00 | 0.00 | 77 | 1016.0 |
| 20260507102116 | 6 | 345 | 3.2 | 6.4 | 0.00 | 0.00 | 0.00 | 77 | 1016.0 |
| 20260507101612 | 6 | 349 | 4.8 | 8.0 | 0.00 | 0.00 | 0.00 | 77 | 1015.9 |
| 20260507101108 | 6 | 0 | 6.4 | 6.4 | 0.00 | 0.00 | 0.00 | 77 | 1015.9 |
| 20260507100606 | 6 | 325 | 3.2 | 8.0 | 0.00 | 0.00 | 0.00 | 77 | 1016.0 |
| 20260507100104 | 6 | 352 | 4.8 | 6.4 | 0.00 | 0.00 | 0.00 | 77 | 1015.9 |
| 20260507095601 | 6 | 6 | 6.4 | 8.0 | 0.00 | 0.00 | 0.00 | 77 | 1016.0 |
| 20260507095058 | 6 | 345 | 8.0 | 9.7 | 0.00 | 0.00 | 0.00 | 77 | 1016.0 |
| 20260507094554 | 6 | 350 | 4.8 | 8.0 | 0.00 | 0.00 | 0.00 | 77 | 1016.0 |
| 20260507094051 | 6 | 19 | 9.7 | 9.7 | 0.00 | 0.00 | 0.00 | 77 | 1016.2 |
| 20260507093549 | 6 | 354 | 6.4 | 8.0 | 0.00 | 0.00 | 0.00 | 80 | 1016.1 |
| 20260507093047 | 6 | 325 | 3.2 | 8.0 | 0.00 | 0.00 | 0.00 | 80 | 1016.0 |
| 20260507092543 | 6 | 336 | 4.8 | 8.0 | 0.00 | 0.00 | 0.00 | 82 | 1015.8 |
| 20260507092040 | 6 | 349 | 6.4 | 8.0 | 0.00 | 0.00 | 0.00 | 84 | 1015.8 |
| 20260507091537 | 6 | 355 | 4.8 | 6.4 | 0.00 | 0.00 | 0.00 | 84 | 1015.7 |
| 20260507091033 | 6 | 14 | 4.8 | 6.4 | 0.00 | 0.00 | 0.00 | 82 | 1015.7 |
| 20260507090529 | 6 | 345 | 6.4 | 8.0 | 0.00 | 0.00 | 0.00 | 82 | 1015.7 |
| 20260507090026 | 6 | 332 | 3.2 | 4.8 | 0.00 | 0.00 | 0.00 | 83 | 1015.8 |
| 20260507085523 | 6 | 347 | 3.2 | 6.4 | 0.00 | 0.00 | 0.00 | 84 | 1015.6 |
| 20260507085020 | 6 | 351 | 6.4 | 6.4 | 0.00 | 0.00 | 0.00 | 83 | 1015.6 |
| 20260507084516 | 6 | 344 | 4.8 | 6.4 | 0.00 | 0.00 | 0.00 | 83 | 1015.5 |
| 20260507084013 | 7 | 355 | 3.2 | 4.8 | 0.00 | 0.00 | 0.00 | 83 | 1015.5 |
| 20260507083509 | 6 | 6 | 4.8 | 6.4 | 0.00 | 0.00 | 0.00 | 84 | 1015.5 |
| 20260507083007 | 7 | 325 | 3.2 | 4.8 | 0.00 | 0.00 | 0.00 | 84 | 1015.7 |
| 20260507082502 | 7 | 339 | 3.2 | 4.8 | 0.00 | 0.00 | 0.00 | 84 | 1015.4 |
| 20260507081959 | 6 | 36 | 4.8 | 6.4 | 0.00 | 0.00 | 0.00 | 85 | 1015.5 |
| 20260507081455 | 6 | 343 | 4.8 | 4.8 | 0.00 | 0.00 | 0.00 | 85 | 1015.4 |
| 20260507080952 | 6 | 3 | 4.8 | 8.0 | 0.00 | 0.00 | 0.00 | 85 | 1015.3 |
| 20260507080448 | 6 | 354 | 4.8 | 8.0 | 0.00 | 0.00 | 0.00 | 85 | 1015.5 |
| 20260507075943 | 6 | 357 | 6.4 | 6.4 | 0.00 | 0.00 | 0.00 | 85 | 1015.5 |
| 20260507075440 | 7 | 2 | 6.4 | 8.0 | 0.00 | 0.00 | 0.00 | 85 | 1015.5 |
| 20260507074936 | 7 | 0 | 4.8 | 8.0 | 0.00 | 0.00 | 0.00 | 85 | 1015.4 |
| 20260507074433 | 7 | 352 | 4.8 | 6.4 | 0.00 | 0.00 | 0.00 | 85 | 1015.4 |
| 20260507073932 | 7 | 349 | 4.8 | 6.4 | 0.00 | 0.00 | 0.00 | 85 | 1015.5 |
| 20260507073427 | 7 | 9 | 6.4 | 6.4 | 0.00 | 0.00 | 0.00 | 85 | 1015.4 |
| 20260507072924 | 7 | 355 | 4.8 | 6.4 | 0.00 | 0.00 | 0.00 | 85 | 1015.5 |
| 20260507072422 | 7 | 0 | 6.4 | 6.4 | 0.00 | 0.00 | 0.00 | 85 | 1015.2 |
| 20260507071920 | 7 | 9 | 6.4 | 6.4 | 0.00 | 0.00 | 0.00 | 84 | 1015.4 |
| 20260507071416 | 7 | 1 | 4.8 | 6.4 | 0.00 | 0.00 | 0.00 | 84 | 1015.4 |
| 20260507070913 | 7 | 17 | 6.4 | 6.4 | 0.00 | 0.00 | 0.00 | 84 | 1015.2 |
| 20260507070410 | 7 | 345 | 3.2 | 6.4 | 0.00 | 0.00 | 0.00 | 84 | 1015.3 |
| 20260507065907 | 7 | 10 | 6.4 | 6.4 | 0.00 | 0.00 | 0.00 | 84 | 1015.5 |
| 20260507065404 | 7 | 9 | 6.4 | 8.0 | 0.00 | 0.00 | 0.00 | 84 | 1015.4 |
| 20260507064900 | 7 | 10 | 4.8 | 6.4 | 0.00 | 0.00 | 0.00 | 83 | 1015.5 |
| 20260507064359 | 7 | 356 | 3.2 | 6.4 | 0.00 | 0.00 | 0.00 | 83 | 1015.5 |
| 20260507063856 | 7 | 355 | 4.8 | 6.4 | 0.00 | 0.00 | 0.00 | 83 | 1015.6 |
| 20260507063353 | 7 | 351 | 3.2 | 6.4 | 0.00 | 0.00 | 0.00 | 83 | 1015.6 |
| 20260507062850 | 7 | 344 | 6.4 | 6.4 | 0.00 | 0.00 | 0.00 | 83 | 1015.7 |
| 20260507062347 | 7 | 356 | 4.8 | 6.4 | 0.00 | 0.00 | 0.00 | 83 | 1015.7 |
| 20260507061845 | 7 | 7 | 4.8 | 8.0 | 0.00 | 0.00 | 0.00 | 82 | 1015.6 |
| 20260507061342 | 8 | 347 | 4.8 | 6.4 | 0.00 | 0.00 | 0.00 | 82 | 1015.7 |
| 20260507060841 | 8 | 0 | 6.4 | 8.0 | 0.00 | 0.00 | 0.00 | 82 | 1015.6 |
| 20260507060337 | 8 | 351 | 6.4 | 8.0 | 0.00 | 0.00 | 0.00 | 82 | 1015.6 |
| 20260507055834 | 8 | 9 | 4.8 | 8.0 | 0.00 | 0.00 | 0.00 | 83 | 1015.5 |
| 20260507055329 | 8 | 4 | 6.4 | 8.0 | 0.00 | 0.00 | 0.00 | 82 | 1015.7 |
| 20260507054826 | 8 | 355 | 6.4 | 8.0 | 0.00 | 0.00 | 0.00 | 82 | 1015.7 |
| 20260507054322 | 8 | 354 | 4.8 | 8.0 | 0.00 | 0.00 | 0.00 | 83 | 1015.6 |
| 20260507053820 | 8 | 7 | 6.4 | 9.7 | 0.00 | 0.00 | 0.00 | 82 | 1015.7 |
| 20260507053317 | 8 | 18 | 8.0 | 8.0 | 0.00 | 0.00 | 0.00 | 82 | 1015.8 |
| 20260507052816 | 8 | 7 | 6.4 | 8.0 | 0.00 | 0.00 | 0.00 | 81 | 1015.8 |
| 20260507052312 | 8 | 351 | 4.8 | 8.0 | 0.00 | 0.00 | 0.00 | 81 | 1015.6 |
| 20260507051810 | 8 | 8 | 4.8 | 6.4 | 0.00 | 0.00 | 0.00 | 80 | 1015.5 |
| 20260507051307 | 8 | 8 | 8.0 | 8.0 | 0.00 | 0.00 | 0.00 | 80 | 1015.7 |
| 20260507050804 | 8 | 8 | 4.8 | 9.7 | 0.00 | 0.00 | 0.00 | 80 | 1015.7 |
| 20260507050300 | 8 | 5 | 6.4 | 8.0 | 0.00 | 0.00 | 0.00 | 80 | 1015.8 |
| 20260507045757 | 8 | 6 | 6.4 | 8.0 | 0.00 | 0.00 | 0.00 | 79 | 1015.9 |
| 20260507045253 | 8 | 27 | 9.7 | 9.7 | 0.00 | 0.00 | 0.00 | 79 | 1015.7 |
| 20260507044751 | 8 | 6 | 6.4 | 9.7 | 0.00 | 0.00 | 0.00 | 80 | 1015.8 |
| 20260507044247 | 8 | 0 | 6.4 | 9.7 | 0.00 | 0.00 | 0.00 | 79 | 1015.7 |
| 20260507043743 | 8 | 1 | 6.4 | 9.7 | 0.00 | 0.00 | 0.00 | 80 | 1016.0 |
| 20260507043240 | 8 | 17 | 9.7 | 9.7 | 0.00 | 0.00 | 0.00 | 79 | 1015.9 |
| 20260507042736 | 8 | 19 | 6.4 | 9.7 | 0.00 | 0.00 | 0.00 | 79 | 1015.8 |
| 20260507042232 | 8 | 14 | 9.7 | 9.7 | 0.00 | 0.00 | 0.00 | 79 | 1015.7 |
| 20260507041730 | 8 | 22 | 9.7 | 9.7 | 0.00 | 0.00 | 0.00 | 78 | 1015.7 |
| 20260507041226 | 8 | 1 | 4.8 | 9.7 | 0.00 | 0.00 | 0.00 | 78 | 1015.9 |
| 20260507040723 | 8 | 8 | 9.7 | 9.7 | 0.00 | 0.00 | 0.00 | 77 | 1015.7 |
| 20260507040219 | 9 | 18 | 8.0 | 8.0 | 0.00 | 0.00 | 0.00 | 76 | 1015.7 |
| 20260507035715 | 9 | 359 | 6.4 | 9.7 | 0.00 | 0.76 | 0.76 | 76 | 1015.6 |
| 20260507035211 | 9 | 354 | 4.8 | 8.0 | 0.00 | 0.76 | 0.76 | 75 | 1015.6 |
| 20260507034708 | 9 | 9 | 6.4 | 9.7 | 0.00 | 0.76 | 0.76 | 75 | 1015.6 |
| 20260507034205 | 9 | 6 | 3.2 | 8.0 | 0.00 | 0.76 | 0.76 | 74 | 1015.7 |
| 20260507033704 | 10 | 4 | 6.4 | 8.0 | 0.00 | 0.76 | 0.76 | 73 | 1015.8 |
| 20260507033200 | 10 | 315 | 3.2 | 6.4 | 0.00 | 0.76 | 0.76 | 73 | 1015.8 |
| 20260507032658 | 10 | 349 | 3.2 | 8.0 | 0.00 | 0.76 | 0.76 | 73 | 1015.8 |
| 20260507032153 | 10 | 349 | 3.2 | 8.0 | 0.00 | 0.76 | 0.76 | 73 | 1015.7 |
| 20260507031651 | 10 | 4 | 4.8 | 8.0 | 0.00 | 0.76 | 0.76 | 72 | 1015.8 |
| 20260507031147 | 10 | 356 | 4.8 | 6.4 | 0.00 | 0.76 | 0.76 | 72 | 1015.8 |
| 20260507030644 | 10 | 13 | 4.8 | 8.0 | 0.00 | 0.76 | 0.76 | 72 | 1015.8 |
| 20260507030142 | 10 | 2 | 4.8 | 9.7 | 0.00 | 0.76 | 0.76 | 72 | 1015.6 |
| 20260507025639 | 10 | 22 | 3.2 | 8.0 | 0.00 | 0.76 | 0.76 | 73 | 1015.9 |
| 20260507025136 | 10 | 16 | 6.4 | 8.0 | 0.00 | 0.76 | 0.76 | 73 | 1015.7 |
| 20260507024634 | 10 | 347 | 4.8 | 8.0 | 0.00 | 0.76 | 0.76 | 73 | 1015.8 |
| 20260507024131 | 10 | 9 | 6.4 | 8.0 | 0.00 | 0.76 | 0.76 | 72 | 1015.9 |
| 20260507023626 | 10 | 2 | 3.2 | 6.4 | 0.00 | 0.76 | 0.76 | 73 | 1015.6 |
| 20260507023124 | 10 | 3 | 6.4 | 8.0 | 0.00 | 0.76 | 0.76 | 72 | 1015.7 |
| 20260507022620 | 10 | 16 | 6.4 | 9.7 | 0.00 | 0.76 | 0.76 | 73 | 1015.7 |
| 20260507022116 | 10 | 342 | 3.2 | 6.4 | 0.00 | 0.76 | 0.76 | 73 | 1015.6 |
| 20260507021612 | 10 | 350 | 4.8 | 8.0 | 0.00 | 0.76 | 0.76 | 73 | 1015.7 |
| 20260507021108 | 10 | 8 | 6.4 | 8.0 | 0.00 | 0.76 | 0.76 | 72 | 1015.6 |
| 20260507020607 | 10 | 359 | 6.4 | 8.0 | 0.00 | 0.76 | 0.76 | 72 | 1015.4 |
| 20260507015601 | 10 | 11 | 6.4 | 9.7 | 0.00 | 0.76 | 0.76 | 71 | 1015.6 |
| 20260507015058 | 10 | 4 | 8.0 | 8.0 | 0.00 | 0.76 | 0.76 | 71 | 1015.7 |
| 20260507014555 | 10 | 22 | 4.8 | 6.4 | 0.00 | 0.76 | 0.76 | 70 | 1015.5 |
| 20260507014050 | 11 | 15 | 8.0 | 8.0 | 0.00 | 0.76 | 0.76 | 70 | 1015.3 |
| 20260507013547 | 11 | 351 | 3.2 | 6.4 | 0.00 | 0.76 | 0.76 | 69 | 1015.2 |
| 20260507013045 | 11 | 11 | 6.4 | 6.4 | 0.00 | 0.76 | 0.76 | 69 | 1015.3 |
| 20260507012542 | 11 | 7 | 4.8 | 6.4 | 0.00 | 0.76 | 0.76 | 68 | 1015.1 |
| 20260507012038 | 11 | 2 | 4.8 | 6.4 | 0.00 | 0.76 | 0.76 | 68 | 1015.1 |
| 20260507011536 | 11 | 21 | 6.4 | 6.4 | 0.00 | 0.76 | 0.76 | 68 | 1015.1 |
| 20260507011031 | 11 | 23 | 6.4 | 6.4 | 0.00 | 0.76 | 0.76 | 67 | 1015.1 |
| 20260507010526 | 11 | 18 | 6.4 | 8.0 | 0.00 | 0.76 | 0.76 | 67 | 1014.9 |
| 20260507010023 | 11 | 2 | 4.8 | 6.4 | 0.00 | 0.76 | 0.76 | 67 | 1015.0 |
| 20260507005520 | 12 | 9 | 6.4 | 6.4 | 0.00 | 0.76 | 0.76 | 66 | 1015.0 |
| 20260507005017 | 12 | 4 | 6.4 | 8.0 | 0.00 | 0.76 | 0.76 | 65 | 1015.1 |
| 20260507004514 | 12 | 1 | 4.8 | 6.4 | 0.00 | 0.76 | 0.76 | 63 | 1014.9 |
| 20260507004011 | 12 | 344 | 3.2 | 4.8 | 0.00 | 0.76 | 0.76 | 62 | 1015.0 |
| 20260507003506 | 13 | 0 | 3.2 | 8.0 | 0.00 | 0.76 | 0.76 | 64 | 1015.2 |
| 20260507003001 | 13 | 336 | 3.2 | 6.4 | 0.00 | 0.76 | 0.76 | 60 | 1015.0 |
| 20260507002458 | 13 | 22 | 1.6 | 4.8 | 0.00 | 0.76 | 0.76 | 56 | 1014.7 |
| 20260507001955 | 13 | 2 | 6.4 | 6.4 | 0.00 | 0.76 | 0.76 | 58 | 1014.9 |
| 20260507001451 | 13 | 31 | 4.8 | 6.4 | 0.00 | 0.76 | 0.76 | 52 | 1014.6 |
| 20260507000949 | 13 | 283 | 4.8 | 4.8 | 0.00 | 0.76 | 0.76 | 54 | 1014.8 |
| 20260507000444 | 14 | 26 | 4.8 | 8.0 | 0.00 | 0.76 | 0.76 | 51 | 1014.8 |
| 20260506235940 | 14 | 4 | 4.8 | 8.0 | 0.00 | 0.76 | 0.76 | 52 | 1014.6 |
| 20260506235438 | 14 | 0 | 8.0 | 16.1 | 0.00 | 0.76 | 0.76 | 51 | 1014.7 |
| 20260506234933 | 14 | 16 | 8.0 | 14.5 | 0.00 | 0.76 | 0.76 | 50 | 1014.5 |
| 20260506234431 | 14 | 11 | 9.7 | 9.7 | 0.00 | 0.76 | 0.76 | 50 | 1014.3 |
| 20260506233928 | 15 | 353 | 6.4 | 8.0 | 0.00 | 0.76 | 0.76 | 49 | 1014.5 |
| 20260506233425 | 15 | 309 | 3.2 | 6.4 | 0.00 | 0.76 | 0.76 | 50 | 1014.4 |
| 20260506232921 | 15 | 31 | 9.7 | 9.7 | 0.00 | 0.76 | 0.76 | 47 | 1014.5 |
| 20260506232418 | 15 | 1 | 6.4 | 9.7 | 0.00 | 0.76 | 0.76 | 48 | 1014.5 |
| 20260506231914 | 15 | 308 | 3.2 | 8.0 | 0.00 | 0.76 | 0.76 | 47 | 1014.2 |
| 20260506231411 | 15 | 347 | 4.8 | 11.3 | 0.00 | 0.76 | 0.76 | 47 | 1014.1 |
| 20260506230908 | 15 | 8 | 8.0 | 11.3 | 0.00 | 0.76 | 0.76 | 46 | 1014.0 |
| 20260506230405 | 15 | 353 | 9.7 | 12.9 | 0.00 | 0.76 | 0.76 | 47 | 1014.0 |
| 20260506225901 | 15 | 10 | 12.9 | 16.1 | 0.00 | 0.76 | 0.76 | 45 | 1013.9 |
| 20260506225358 | 15 | 7 | 14.5 | 22.5 | 0.00 | 0.76 | 0.76 | 44 | 1014.0 |
| 20260506224855 | 15 | 35 | 4.8 | 9.7 | 0.00 | 0.76 | 0.76 | 48 | 1014.2 |
| 20260506224353 | 15 | 2 | 8.0 | 9.7 | 0.00 | 0.76 | 0.76 | 48 | 1014.1 |
| 20260506223849 | 15 | 287 | 3.2 | 9.7 | 0.00 | 0.76 | 0.76 | 48 | 1014.2 |
| 20260506223344 | 15 | 9 | 3.2 | 8.0 | 0.00 | 0.76 | 0.76 | 46 | 1014.3 |
| 20260506222842 | 15 | 12 | 4.8 | 12.9 | 0.00 | 0.76 | 0.76 | 45 | 1014.2 |
| 20260506222337 | 15 | 7 | 6.4 | 14.5 | 0.00 | 0.76 | 0.76 | 46 | 1014.4 |
| 20260506221835 | 15 | 25 | 9.7 | 9.7 | 0.00 | 0.76 | 0.76 | 46 | 1014.4 |
| 20260506221332 | 15 | 5 | 6.4 | 9.7 | 0.00 | 0.76 | 0.76 | 46 | 1014.6 |
| 20260506220830 | 15 | 315 | 4.8 | 8.0 | 0.00 | 0.76 | 0.76 | 46 | 1014.5 |
| 20260506220325 | 15 | 340 | 3.2 | 9.7 | 0.00 | 0.76 | 0.76 | 47 | 1014.6 |
| 20260506215822 | 15 | 295 | 3.2 | 9.7 | 0.00 | 0.76 | 0.76 | 45 | 1014.7 |
| 20260506215318 | 15 | 23 | 3.2 | 9.7 | 0.00 | 0.76 | 0.76 | 46 | 1014.6 |
| 20260506214814 | 15 | 44 | 11.3 | 12.9 | 0.00 | 0.76 | 0.76 | 47 | 1014.6 |
| 20260506214311 | 15 | 257 | 3.2 | 9.7 | 0.00 | 0.76 | 0.76 | 47 | 1014.4 |
| 20260506213809 | 15 | 12 | 8.0 | 14.5 | 0.00 | 0.76 | 0.76 | 46 | 1014.5 |
| 20260506213306 | 15 | 21 | 6.4 | 11.3 | 0.00 | 0.76 | 0.76 | 45 | 1014.5 |
| 20260506212804 | 15 | 20 | 3.2 | 9.7 | 0.00 | 0.76 | 0.76 | 46 | 1014.4 |
| 20260506212259 | 15 | 288 | 3.2 | 11.3 | 0.00 | 0.76 | 0.76 | 45 | 1014.4 |
| 20260506211754 | 15 | 305 | 3.2 | 8.0 | 0.00 | 0.76 | 0.76 | 43 | 1014.4 |
| 20260506211251 | 15 | 267 | 11.3 | 12.9 | 0.00 | 0.76 | 0.76 | 43 | 1014.2 |
| 20260506210748 | 15 | 9 | 4.8 | 11.3 | 0.00 | 0.76 | 0.76 | 45 | 1014.1 |
| 20260506210244 | 15 | 358 | 12.9 | 16.1 | 0.00 | 0.76 | 0.76 | 44 | 1014.0 |
| 20260506205742 | 15 | 15 | 6.4 | 14.5 | 0.00 | 0.76 | 0.76 | 44 | 1013.9 |
| 20260506205237 | 16 | 48 | 4.8 | 14.5 | 0.00 | 0.76 | 0.76 | 44 | 1014.0 |
| 20260506204734 | 15 | 41 | 11.3 | 12.9 | 0.00 | 0.76 | 0.76 | 45 | 1014.0 |
| 20260506204232 | 15 | 36 | 0.0 | 19.3 | 0.00 | 0.76 | 0.76 | 45 | 1013.9 |
| 20260506203730 | 15 | 299 | 4.8 | 14.5 | 0.00 | 0.76 | 0.76 | 45 | 1014.1 |
| 20260506203226 | 15 | 8 | 19.3 | 20.9 | 0.00 | 0.76 | 0.76 | 44 | 1013.9 |
| 20260506202724 | 15 | 27 | 11.3 | 14.5 | 0.00 | 0.76 | 0.76 | 45 | 1014.2 |
| 20260506202220 | 15 | 9 | 12.9 | 16.1 | 0.00 | 0.76 | 0.76 | 45 | 1014.2 |
| 20260506201717 | 15 | 339 | 6.4 | 9.7 | 0.00 | 0.76 | 0.76 | 44 | 1014.2 |
| 20260506201214 | 15 | 33 | 4.8 | 16.1 | 0.00 | 0.76 | 0.76 | 43 | 1014.0 |
| 20260506200711 | 15 | 21 | 8.0 | 14.5 | 0.00 | 0.76 | 0.76 | 43 | 1014.1 |
| 20260506200208 | 15 | 15 | 11.3 | 19.3 | 0.00 | 0.76 | 0.76 | 42 | 1014.1 |
| 20260506195705 | 15 | 8 | 9.7 | 17.7 | 0.00 | 0.76 | 0.76 | 43 | 1014.2 |
| 20260506195201 | 15 | 18 | 6.4 | 17.7 | 0.00 | 0.76 | 0.76 | 43 | 1014.0 |
| 20260506194658 | 15 | 327 | 6.4 | 19.3 | 0.00 | 0.76 | 0.76 | 42 | 1014.0 |
| 20260506194154 | 16 | 347 | 6.4 | 11.3 | 0.00 | 0.76 | 0.76 | 43 | 1014.0 |
| 20260506193652 | 15 | 315 | 3.2 | 17.7 | 0.00 | 0.76 | 0.76 | 45 | 1014.0 |
| 20260506193149 | 15 | 359 | 12.9 | 20.9 | 0.00 | 0.76 | 0.76 | 45 | 1013.9 |
| 20260506192646 | 16 | 350 | 9.7 | 12.9 | 0.00 | 0.76 | 0.76 | 44 | 1013.9 |
| 20260506192142 | 16 | 73 | 3.2 | 17.7 | 0.00 | 0.76 | 0.76 | 45 | 1013.7 |
| 20260506191639 | 16 | 328 | 6.4 | 8.0 | 0.00 | 0.76 | 0.76 | 45 | 1013.4 |
| 20260506191135 | 16 | 7 | 12.9 | 16.1 | 0.00 | 0.76 | 0.76 | 44 | 1013.7 |
| 20260506190632 | 16 | 28 | 8.0 | 16.1 | 0.00 | 0.76 | 0.76 | 44 | 1013.7 |
| 20260506190129 | 16 | 274 | 8.0 | 14.5 | 0.00 | 0.76 | 0.76 | 44 | 1013.6 |
| 20260506185626 | 16 | 292 | 4.8 | 14.5 | 0.00 | 0.76 | 0.76 | 44 | 1013.5 |
| 20260506185122 | 16 | 0 | 14.5 | 19.3 | 0.00 | 0.76 | 0.76 | 43 | 1013.4 |
| 20260506184620 | 16 | 9 | 14.5 | 14.5 | 0.00 | 0.76 | 0.76 | 45 | 1013.6 |
| 20260506184117 | 16 | 38 | 4.8 | 17.7 | 0.00 | 0.76 | 0.76 | 44 | 1013.6 |
| 20260506183614 | 16 | 277 | 12.9 | 17.7 | 0.00 | 0.76 | 0.76 | 43 | 1013.4 |
| 20260506183109 | 16 | 34 | 9.7 | 11.3 | 0.00 | 0.76 | 0.76 | 45 | 1013.4 |
| 20260506182608 | 16 | 28 | 11.3 | 19.3 | 0.00 | 0.76 | 0.76 | 43 | 1013.4 |
| 20260506182104 | 16 | 6 | 9.7 | 22.5 | 0.00 | 0.76 | 0.76 | 41 | 1013.5 |
| 20260506181602 | 16 | 317 | 0.0 | 22.5 | 0.00 | 0.76 | 0.76 | 44 | 1013.5 |
| 20260506181059 | 16 | 334 | 6.4 | 16.1 | 0.00 | 0.76 | 0.76 | 43 | 1013.5 |
| 20260506180555 | 16 | 34 | 6.4 | 12.9 | 0.00 | 0.76 | 0.76 | 45 | 1013.6 |
| 20260506180052 | 16 | 347 | 3.2 | 12.9 | 0.00 | 0.76 | 0.76 | 46 | 1013.8 |
| 20260506175548 | 15 | 44 | 3.2 | 14.5 | 0.00 | 0.76 | 0.76 | 47 | 1014.0 |
| 20260506175044 | 15 | 357 | 14.5 | 17.7 | 0.00 | 0.76 | 0.76 | 47 | 1013.9 |
| 20260506174543 | 15 | 355 | 3.2 | 11.3 | 0.00 | 0.76 | 0.76 | 47 | 1013.6 |
| 20260506174039 | 15 | 32 | 19.3 | 20.9 | 0.00 | 0.76 | 0.76 | 46 | 1014.0 |
| 20260506173537 | 15 | 42 | 3.2 | 14.5 | 0.00 | 0.76 | 0.76 | 45 | 1014.1 |
| 20260506173034 | 15 | 12 | 14.5 | 22.5 | 0.00 | 0.76 | 0.76 | 44 | 1014.0 |
| 20260506172531 | 15 | 342 | 4.8 | 14.5 | 0.00 | 0.76 | 0.76 | 46 | 1014.1 |
| 20260506172027 | 15 | 309 | 3.2 | 22.5 | 0.00 | 0.76 | 0.76 | 44 | 1014.0 |
| 20260506171525 | 15 | 11 | 4.8 | 14.5 | 0.00 | 0.76 | 0.76 | 46 | 1014.2 |
| 20260506171022 | 14 | 354 | 8.0 | 9.7 | 0.00 | 0.76 | 0.76 | 48 | 1014.1 |
| 20260506170520 | 14 | 25 | 12.9 | 16.1 | 0.00 | 0.76 | 0.76 | 47 | 1014.3 |
| 20260506170017 | 14 | 17 | 8.0 | 14.5 | 0.00 | 0.76 | 0.76 | 48 | 1014.2 |
| 20260506165516 | 14 | 5 | 6.4 | 20.9 | 0.00 | 0.76 | 0.76 | 47 | 1014.2 |
| 20260506165011 | 15 | 17 | 6.4 | 14.5 | 0.00 | 0.76 | 0.76 | 47 | 1014.3 |
| 20260506164508 | 14 | 356 | 3.2 | 4.8 | 0.00 | 0.76 | 0.76 | 48 | 1014.3 |
| 20260506164006 | 14 | 1 | 6.4 | 24.1 | 0.00 | 0.76 | 0.76 | 47 | 1014.4 |
| 20260506163501 | 13 | 330 | 3.2 | 17.7 | 0.00 | 0.76 | 0.76 | 48 | 1014.3 |
| 20260506162955 | 13 | 24 | 12.9 | 16.1 | 0.00 | 0.76 | 0.76 | 47 | 1014.2 |
| 20260506162454 | 13 | 9 | 20.9 | 22.5 | 0.00 | 0.76 | 0.76 | 52 | 1014.1 |
| 20260506161951 | 13 | 345 | 6.4 | 17.7 | 0.00 | 0.76 | 0.76 | 49 | 1014.2 |
| 20260506161449 | 13 | 12 | 9.7 | 12.9 | 0.00 | 0.76 | 0.76 | 52 | 1014.3 |
| 20260506160946 | 13 | 23 | 8.0 | 19.3 | 0.00 | 0.76 | 0.76 | 51 | 1014.4 |
| 20260506160443 | 13 | 185 | 3.2 | 12.9 | 0.00 | 0.76 | 0.76 | 56 | 1014.3 |
| 20260506155940 | 12 | 22 | 12.9 | 22.5 | 0.00 | 0.76 | 0.76 | 54 | 1014.2 |
| 20260506155438 | 12 | 20 | 11.3 | 25.7 | 0.00 | 0.76 | 0.76 | 54 | 1014.0 |
| 20260506153605 | 12 | 21 | 14.5 | 16.1 | 0.00 | 0.76 | 0.76 | 57 | 1014.0 |
| 20260506153102 | 12 | 316 | 0.0 | 9.7 | 0.00 | 0.76 | 0.76 | 58 | 1013.8 |
| 20260506152559 | 12 | 28 | 11.3 | 14.5 | 0.00 | 0.76 | 0.76 | 58 | 1014.1 |
| 20260506152057 | 12 | 359 | 11.3 | 19.3 | 0.00 | 0.76 | 0.76 | 58 | 1014.5 |
| 20260506151555 | 12 | 347 | 12.9 | 19.3 | 0.00 | 0.76 | 0.76 | 58 | 1014.6 |
| 20260506151052 | 11 | 313 | 3.2 | 12.9 | 0.00 | 0.76 | 0.76 | 60 | 1014.2 |
| 20260506150548 | 11 | 6 | 11.3 | 22.5 | 0.00 | 0.76 | 0.76 | 60 | 1014.0 |
| 20260506150045 | 11 | 32 | 11.3 | 14.5 | 0.00 | 0.76 | 0.76 | 64 | 1013.5 |
| 20260506145542 | 11 | 355 | 6.4 | 19.3 | 0.00 | 0.76 | 0.76 | 66 | 1013.9 |
| 20260506145039 | 11 | 22 | 6.4 | 8.0 | 0.00 | 0.76 | 0.76 | 67 | 1013.6 |
| 20260506144536 | 11 | 27 | 4.8 | 9.7 | 0.00 | 0.76 | 0.76 | 66 | 1013.5 |
| 20260506144033 | 11 | 19 | 3.2 | 4.8 | 0.00 | 0.76 | 0.76 | 68 | 1013.2 |
| 20260506143531 | 11 | 6 | 11.3 | 22.5 | 0.00 | 0.76 | 0.76 | 68 | 1013.1 |
| 20260506143029 | 10 | 294 | 6.4 | 14.5 | 0.00 | 0.76 | 0.76 | 68 | 1013.1 |
| 20260506142526 | 10 | 351 | 0.0 | 9.7 | 0.00 | 0.76 | 0.76 | 71 | 1013.0 |
| 20260506142024 | 10 | 32 | 8.0 | 12.9 | 0.00 | 0.76 | 0.76 | 71 | 1013.2 |
| 20260506141522 | 10 | 19 | 20.9 | 24.1 | 0.00 | 0.76 | 0.76 | 70 | 1013.1 |
| 20260506141020 | 10 | 27 | 12.9 | 19.3 | 0.00 | 0.76 | 0.76 | 71 | 1013.3 |
| 20260506140517 | 10 | 359 | 11.3 | 19.3 | 0.05 | 0.76 | 0.76 | 73 | 1013.2 |
| 20260506140014 | 10 | 331 | 8.0 | 11.3 | 0.05 | 0.76 | 0.76 | 75 | 1013.1 |
| 20260506135511 | 10 | 319 | 3.2 | 6.4 | 0.00 | 0.76 | 0.76 | 75 | 1013.0 |
| 20260506135007 | 10 | 26 | 11.3 | 17.7 | 0.00 | 0.76 | 0.76 | 73 | 1013.2 |
| 20260506134504 | 10 | 322 | 4.8 | 19.3 | 0.00 | 0.76 | 0.76 | 75 | 1013.1 |
| 20260506134000 | 9 | 36 | 9.7 | 9.7 | 0.00 | 0.76 | 0.76 | 77 | 1013.0 |
| 20260506133457 | 9 | 16 | 19.3 | 22.5 | 0.00 | 0.76 | 0.76 | 76 | 1013.0 |
| 20260506132954 | 9 | 19 | 6.4 | 16.1 | 0.00 | 0.76 | 0.76 | 77 | 1013.0 |
| 20260506132451 | 9 | 19 | 17.7 | 17.7 | 0.00 | 0.76 | 0.76 | 78 | 1012.7 |
| 20260506131948 | 9 | 296 | 3.2 | 8.0 | 0.00 | 0.76 | 0.76 | 79 | 1012.9 |
| 20260506131444 | 8 | 12 | 11.3 | 14.5 | 0.00 | 0.76 | 0.76 | 79 | 1012.8 |
| 20260506130942 | 8 | 28 | 9.7 | 14.5 | 0.00 | 0.76 | 0.76 | 79 | 1012.8 |
| 20260506130438 | 8 | 350 | 3.2 | 8.0 | 0.00 | 0.76 | 0.76 | 80 | 1012.3 |
| 20260506125936 | 8 | 347 | 6.4 | 11.3 | 0.00 | 0.76 | 0.76 | 81 | 1012.5 |
| 20260506125434 | 8 | 21 | 12.9 | 16.1 | 0.00 | 0.76 | 0.76 | 81 | 1012.6 |